Date String (YYYY-MM-DD hh:mm:ss) UTC,Instrument flags,Ambient pressure (hPa),Sample flow (lpm),Bypass flow (lpm),Sample temperature (°C),Ambient temperature (°C),ASC tube jacket temperature (°C),LED temperature (°C),Box temperature (°C),Sample RH (%),Span deviation,Mass concentration (μg/m³),Mass concentration (μg/m³),Mass concentration (μg/m³)
DateTimeUTC,F1_M11,P_M11,Q1_M11,Q2_M11,T1_M11,T2_M11,T3_M11,T4_M11,T5_M11,U1_M11,ZSPAN_M11,X0_M11,X2_M11,X1_M11
2023-04-09 04:00:00,,0832.7,5.00,0.00,26.1,24.4,00.0,34.4,27.6,13.5,0000.0,0008.28,0003.22,0001.89
2023-04-09 04:01:00,,0832.8,5.00,0.00,26.1,24.4,00.0,34.4,27.6,13.7,0000.0,0008.32,0003.22,0001.91
2023-04-09 04:02:00,,0832.8,4.99,0.00,26.1,24.4,00.0,34.4,27.6,13.7,0000.0,0008.51,0003.20,0001.93
2023-04-09 04:03:00,,0832.8,5.00,0.00,26.1,24.4,00.0,34.4,27.6,13.7,0000.0,0008.59,0003.19,0001.95
2023-04-09 04:04:00,,0832.8,5.01,0.00,26.1,24.4,00.0,34.4,27.6,13.6,0000.0,0009.57,0003.24,0001.99
2023-04-09 04:05:00,,0832.8,5.01,0.00,26.1,24.4,00.0,34.4,27.6,13.6,0000.0,0009.39,0003.25,0001.99
2023-04-09 04:06:00,,0832.8,4.99,0.00,26.1,24.4,00.0,34.4,27.6,13.5,0000.0,0009.39,0003.28,0001.99
2023-04-09 04:07:00,,0833.0,5.00,0.00,26.1,24.4,00.0,34.4,27.6,13.6,0000.0,0009.51,0003.29,0002.01
2023-04-09 04:08:00,,0833.4,4.99,0.00,26.1,24.5,00.0,34.4,27.7,13.6,0000.0,0009.38,0003.28,0002.02
2023-04-09 04:09:00,,0833.4,5.01,0.00,26.1,24.5,00.0,34.4,27.7,13.8,0000.0,0009.42,0003.28,0002.03
2023-04-09 04:10:00,,0833.3,5.01,0.00,26.1,24.5,00.0,34.4,27.6,13.8,0000.0,0009.53,0003.31,0002.02
2023-04-09 04:11:00,,0832.8,5.00,0.00,26.1,24.5,00.0,34.4,27.6,13.8,0000.0,0009.33,0003.27,0002.03
2023-04-09 04:12:00,,0832.8,5.00,0.00,26.1,24.5,00.0,34.4,27.6,13.7,0000.0,0009.18,0003.29,0002.04
2023-04-09 04:13:00,,0832.8,5.00,0.00,26.1,24.5,00.0,34.4,27.7,13.6,0000.0,0008.82,0003.29,0002.04
2023-04-09 04:14:00,,0832.8,4.99,0.00,26.1,24.5,00.0,34.4,27.7,13.6,0000.0,0008.93,0003.34,0002.04
2023-04-09 04:15:00,,0832.7,4.99,0.00,26.1,24.5,00.0,34.4,27.7,13.7,0000.0,0008.10,0003.32,0002.03
2023-04-09 04:16:00,,0832.7,5.00,0.00,26.1,24.5,00.0,34.4,27.7,13.7,0000.0,0008.18,0003.31,0002.03
2023-04-09 04:17:00,,0832.8,5.00,0.00,26.1,24.5,00.0,34.4,27.7,13.7,0000.0,0008.46,0003.31,0002.03
2023-04-09 04:18:00,,0833.0,5.01,0.00,26.1,24.5,00.0,34.4,27.7,13.7,0000.0,0008.66,0003.32,0002.03
2023-04-09 04:19:00,,0832.8,5.00,0.00,26.1,24.5,00.0,34.4,27.7,13.8,0000.0,0008.85,0003.33,0002.02
2023-04-09 04:20:00,,0832.8,5.00,0.00,26.1,24.5,00.0,34.4,27.7,13.8,0000.0,0009.34,0003.38,0002.03
2023-04-09 04:21:00,,0832.8,4.98,0.00,26.1,24.5,00.0,34.4,27.7,13.7,0000.0,0009.58,0003.34,0002.04
2023-04-09 04:22:00,,0832.8,4.99,0.00,26.1,24.4,00.0,34.4,27.7,13.7,0000.0,0009.63,0003.35,0002.04
2023-04-09 04:23:00,,0832.8,5.00,0.00,26.1,24.4,00.0,34.4,27.6,13.8,0000.0,0009.90,0003.33,0002.04
2023-04-09 04:24:00,,0832.8,5.01,0.00,26.1,24.4,00.0,34.4,27.6,13.9,0000.0,0010.19,0003.31,0002.04
2023-04-09 04:25:00,,0832.8,5.00,0.00,26.0,24.4,00.0,34.4,27.6,14.0,0000.0,0010.19,0003.32,0002.03
2023-04-09 04:26:00,,0832.8,5.00,0.00,26.0,24.4,00.0,34.4,27.6,13.9,0000.0,0010.13,0003.28,0002.01
2023-04-09 04:27:00,,0832.8,5.00,0.00,26.0,24.4,00.0,34.4,27.6,13.8,0000.0,0009.83,0003.25,0002.00
2023-04-09 04:28:00,,0832.8,4.99,0.00,26.0,24.4,00.0,34.4,27.6,13.8,0000.0,0009.86,0003.27,0002.01
2023-04-09 04:29:00,,0832.8,5.00,0.00,26.0,24.4,00.0,34.4,27.6,13.8,0000.0,0009.87,0003.26,0002.00
2023-04-09 04:30:00,,0832.8,5.01,0.00,26.0,24.3,00.0,34.4,27.6,13.9,0000.0,0009.66,0003.25,0002.00
2023-04-09 04:31:00,,0832.8,4.99,0.00,26.0,24.3,00.0,34.4,27.6,13.9,0000.0,0009.16,0003.22,0001.99
2023-04-09 04:32:00,,0832.8,4.99,0.00,26.0,24.3,00.0,34.4,27.6,13.9,0000.0,0008.64,0003.25,0001.99
2023-04-09 04:33:00,,0832.8,5.00,0.00,26.0,24.3,00.0,34.3,27.6,13.9,0000.0,0008.64,0003.28,0001.98
2023-04-09 04:34:00,,0832.8,5.01,0.00,26.0,24.3,00.0,34.3,27.6,13.9,0000.0,0008.37,0003.29,0001.98
2023-04-09 04:35:00,,0832.8,4.99,0.00,26.0,24.3,00.0,34.3,27.6,13.9,0000.0,0008.37,0003.29,0001.98
2023-04-09 04:36:00,,0832.8,4.99,0.00,26.0,24.3,00.0,34.3,27.6,13.9,0000.0,0008.52,0003.23,0001.99
2023-04-09 04:37:00,,0832.8,4.99,0.00,26.0,24.3,00.0,34.3,27.6,14.0,0000.0,0008.82,0003.26,0002.00
2023-04-09 04:38:00,,0832.8,5.00,0.00,26.0,24.3,00.0,34.3,27.6,13.9,0000.0,0009.28,0003.30,0002.00
2023-04-09 04:39:00,,0832.8,5.00,0.00,26.0,24.4,00.0,34.3,27.6,13.9,0000.0,0009.01,0003.28,0002.01
2023-04-09 04:40:00,,0832.8,5.00,0.00,26.0,24.4,00.0,34.3,27.5,14.0,0000.0,0008.76,0003.27,0002.01
2023-04-09 04:41:00,,0832.9,5.00,0.00,26.0,24.4,00.0,34.3,27.5,14.0,0000.0,0008.85,0003.27,0002.03
2023-04-09 04:42:00,,0833.1,5.00,0.00,26.0,24.3,00.0,34.3,27.5,14.0,0000.0,0009.42,0003.25,0002.03
2023-04-09 04:43:00,,0833.2,5.00,0.00,26.0,24.3,00.0,34.3,27.5,14.0,0000.0,0009.52,0003.23,0002.04
2023-04-09 04:44:00,,0833.2,5.00,0.00,26.0,24.3,00.0,34.3,27.5,14.1,0000.0,0010.38,0003.26,0002.05
2023-04-09 04:45:00,,0833.1,5.00,0.00,26.0,24.3,00.0,34.3,27.5,14.0,0000.0,0010.51,0003.27,0002.04
2023-04-09 04:46:00,,0833.0,5.00,0.00,26.0,24.3,00.0,34.3,27.5,13.9,0000.0,0010.45,0003.30,0002.05
2023-04-09 04:47:00,,0833.0,4.99,0.00,26.0,24.3,00.0,34.3,27.5,14.0,0000.0,0010.47,0003.37,0002.05
2023-04-09 04:48:00,,0833.0,5.00,0.00,26.0,24.3,00.0,34.3,27.5,14.0,0000.0,0010.82,0003.40,0002.03
2023-04-09 04:49:00,,0833.0,5.00,0.00,26.0,24.3,00.0,34.3,27.5,14.1,0000.0,0010.26,0003.39,0002.05
2023-04-09 04:50:00,,0833.0,5.00,0.00,26.0,24.3,00.0,34.3,27.6,14.0,0000.0,0010.91,0003.42,0002.05
2023-04-09 04:51:00,,0832.9,5.01,0.00,26.0,24.3,00.0,34.3,27.6,13.9,0000.0,0011.35,0003.45,0002.05
2023-04-09 04:52:00,,0833.0,5.01,0.00,26.0,24.3,00.0,34.3,27.6,13.8,0000.0,0011.38,0003.43,0002.04
2023-04-09 04:53:00,,0833.3,5.00,0.00,26.0,24.3,00.0,34.3,27.5,13.8,0000.0,0011.05,0003.43,0002.04
2023-04-09 04:54:00,,0833.0,5.00,0.00,26.0,24.3,00.0,34.3,27.5,13.8,0000.0,0011.08,0003.45,0002.03
2023-04-09 04:55:00,,0832.9,5.00,0.00,25.9,24.3,00.0,34.3,27.5,13.8,0000.0,0010.42,0003.40,0002.02
2023-04-09 04:56:00,,0832.9,4.99,0.00,26.0,24.3,00.0,34.3,27.5,13.8,0000.0,0009.75,0003.35,0002.02
2023-04-09 04:57:00,,0833.0,5.00,0.00,26.0,24.3,00.0,34.3,27.5,13.8,0000.0,0009.89,0003.33,0002.00
2023-04-09 04:58:00,,0832.9,5.00,0.00,26.0,24.3,00.0,34.3,27.5,13.8,0000.0,0010.04,0003.30,0001.98
2023-04-09 04:59:00,,0833.0,5.00,0.00,26.0,24.3,00.0,34.3,27.5,13.7,0000.0,0009.55,0003.26,0001.97
